FW4267 Weather Reports


Display with metric or nautical units.
time (UTC)temp
F
wind
direction
speed
MPH
gust
MPH
rain 1hr
in
rain 24hr
in
rain mn
in
humidity
%
barometer
mb
20260502170124 64 117 9.0 20.0 0.00 0.00 0.00 73 1013.5
20260502164127 65 107 10.0 18.0 0.00 0.00 0.00 73 1013.7
20260502163624 65 100 9.0 19.0 0.00 0.00 0.00 72 1013.9
20260502163123 65 96 9.0 19.0 0.00 0.00 0.00 72 1013.8
20260502162622 66 94 10.0 16.0 0.00 0.00 0.00 72 1013.8
20260502162445 66 116 11.0 19.0 0.00 0.00 0.00 72 1013.8
20260502161954 66 97 11.0 23.0 0.00 0.00 0.00 71 1013.7
20260502161123 66 94 14.0 23.0 0.00 0.00 0.00 70 1013.7
20260502160623 67 96 9.0 19.0 0.00 0.00 0.00 71 1013.7
20260502160122 67 99 10.0 20.0 0.00 0.00 0.00 70 1013.7
20260502152122 67 109 9.0 18.0 0.00 0.00 0.00 67 1014.2
20260502151621 67 75 10.0 18.0 0.00 0.00 0.00 68 1014.2
20260502151121 68 102 11.0 18.0 0.00 0.00 0.00 67 1014.4
20260502150936 68 104 10.0 17.0 0.00 0.00 0.00 66 1014.5
20260502150119 68 85 9.0 15.0 0.00 0.00 0.00 66 1014.5
20260502140121 70 121 10.0 18.0 0.00 0.00 0.00 63 1015.3
20260502130617 69 103 8.0 15.0 0.00 0.00 0.00 64 1015.8
20260502130118 69 113 9.0 18.0 0.00 0.00 0.00 64 1015.8
20260502123616 69 107 8.0 17.0 0.00 0.00 0.00 65 1016.1
20260502123117 69 80 7.0 17.0 0.00 0.00 0.00 65 1016.1
20260502122615 69 127 9.0 16.0 0.00 0.00 0.00 65 1016.2
20260502122118 69 94 9.0 16.0 0.00 0.00 0.00 65 1016.3
20260502121923 69 96 9.0 14.0 0.00 0.00 0.00 64 1016.2
20260502121115 69 96 6.0 18.0 0.00 0.00 0.00 65 1016.2
20260502120616 68 85 10.0 20.0 0.00 0.00 0.00 64 1016.2
20260502120116 69 102 14.0 20.0 0.00 0.00 0.00 63 1016.2
20260502115615 69 121 9.0 17.0 0.00 0.00 0.00 64 1016.2
20260502115115 69 69 10.0 16.0 0.00 0.00 0.00 65 1016.4
20260502114617 69 79 7.0 18.0 0.00 0.00 0.00 65 1016.5
20260502114115 69 97 7.0 18.0 0.00 0.00 0.00 65 1016.7
20260502113614 69 127 10.0 19.0 0.00 0.00 0.00 65 1016.8
20260502113242 69 99 9.0 17.0 0.00 0.00 0.00 65 1016.8
20260502113212 69 72 10.0 19.0 0.00 0.00 0.00 65 1016.8
20260502112115 69 117 11.0 17.0 0.00 0.00 0.00 65 1017.0
20260502111921 69 109 10.0 16.0 0.00 0.00 0.00 65 1017.0
20260502111114 69 107 8.0 19.0 0.00 0.00 0.00 68 1017.0
20260502110614 69 104 10.0 19.0 0.00 0.00 0.00 66 1017.0
20260502110117 69 85 10.0 17.0 0.00 0.00 0.00 67 1017.1
20260502105613 69 111 9.0 16.0 0.00 0.00 0.00 67 1017.2
20260502105422 68 99 9.0 16.0 0.00 0.00 0.00 69 1017.3
20260502104614 68 124 9.0 16.0 0.00 0.00 0.00 69 1017.3
20260502104113 67 37 8.0 18.0 0.00 0.00 0.00 70 1017.5
20260502103614 67 113 7.0 18.0 0.00 0.00 0.00 71 1017.6
20260502103113 67 90 10.0 15.0 0.00 0.00 0.00 69 1017.6
20260502102934 67 125 9.0 15.0 0.00 0.00 0.00 69 1017.5
20260502102115 67 107 10.0 15.0 0.00 0.00 0.00 69 1017.5
20260502101614 67 125 9.0 17.0 0.00 0.00 0.00 69 1017.5
20260502101113 67 110 8.0 19.0 0.00 0.00 0.00 68 1017.5
20260502100613 67 121 11.0 19.0 0.00 0.00 0.00 67 1017.5
20260502100209 68 92 10.0 17.0 0.00 0.00 0.00 69 1017.6
20260502091112 65 114 13.0 22.0 0.00 0.00 0.00 71 1017.8
20260502090611 66 124 9.0 22.0 0.00 0.00 0.00 74 1017.8
20260502090123 65 120 11.0 21.0 0.00 0.00 0.00 72 1017.7
20260502080110 63 79 8.0 19.0 0.00 0.00 0.00 77 1017.8
20260502071108 61 106 5.0 12.0 0.00 0.00 0.00 82 1018.1
20260502070610 61 106 5.0 13.0 0.00 0.00 0.00 83 1017.9
20260502070110 60 94 7.0 13.0 0.00 0.00 0.00 83 1018.0
20260502065609 60 109 7.0 12.0 0.00 0.00 0.00 83 1017.8
20260502065109 60 106 6.0 12.0 0.00 0.00 0.00 83 1017.9
20260502064621 60 92 6.0 10.0 0.00 0.00 0.00 84 1017.9
20260502064108 60 120 5.0 10.0 0.00 0.00 0.00 84 1017.9
20260502063607 59 96 4.0 11.0 0.00 0.00 0.00 86 1017.9
20260502063108 59 109 5.0 11.0 0.00 0.00 0.00 86 1017.9
20260502062607 58 111 5.0 10.0 0.00 0.00 0.00 87 1017.8
20260502062235 58 114 4.0 9.0 0.00 0.00 0.00 88 1017.7
20260502062205 58 113 4.0 10.0 0.00 0.00 0.00 87 1017.8
20260502061119 57 120 4.0 9.0 0.00 0.00 0.00 88 1017.7
20260502060610 57 93 3.0 6.0 0.00 0.00 0.00 89 1017.8
20260502060107 57 111 4.0 6.0 0.00 0.00 0.00 89 1017.7
20260502055608 56 107 3.0 5.0 0.00 0.00 0.00 89 1017.8
20260502055107 56 100 4.0 9.0 0.00 0.00 0.00 89 1017.8
20260502054607 56 107 4.0 9.0 0.00 0.00 0.00 89 1017.8
20260502054106 56 110 4.0 7.0 0.00 0.00 0.00 89 1017.8
20260502053607 56 103 3.0 7.0 0.00 0.00 0.00 89 1017.8
20260502053107 56 109 4.0 7.0 0.00 0.00 0.00 89 1017.8
20260502052605 56 97 3.0 6.0 0.00 0.00 0.00 89 1017.8
20260502052413 56 120 2.0 6.0 0.00 0.00 0.00 89 1017.8
20260502051606 56 99 2.0 7.0 0.00 0.00 0.00 89 1017.8
20260502051119 56 82 4.0 7.0 0.00 0.00 0.00 90 1017.8
20260502050605 56 124 2.0 4.0 0.00 0.00 0.00 89 1017.7
20260502050106 56 124 2.0 6.0 0.00 0.00 0.00 90 1017.7
20260502045605 56 117 2.0 6.0 0.00 0.00 0.00 90 1017.7
20260502045105 56 86 3.0 6.0 0.00 0.00 0.00 90 1017.7
20260502044606 56 96 3.0 5.0 0.00 0.00 0.00 90 1017.7
20260502044105 56 106 2.0 5.0 0.00 0.00 0.00 89 1017.7
20260502043619 56 90 4.0 11.0 0.00 0.00 0.00 89 1017.8
20260502043105 56 102 3.0 11.0 0.00 0.00 0.00 89 1017.7
20260502042604 56 121 5.0 9.0 0.00 0.00 0.00 90 1017.6
20260502042415 56 94 4.0 9.0 0.00 0.00 0.00 90 1017.6
20260502041912 56 107 4.0 10.0 0.00 0.00 0.00 90 1017.6
20260502041120 56 96 5.0 10.0 0.00 0.00 0.00 90 1017.7
20260502040603 56 106 4.0 6.0 0.00 0.00 0.00 89 1017.7
20260502040118 56 94 3.0 7.0 0.00 0.00 0.00 89 1017.7
20260502035605 56 111 4.0 7.0 0.00 0.00 0.00 89 1017.7
20260502035105 56 82 4.0 9.0 0.00 0.00 0.00 89 1017.9
20260502034603 56 92 5.0 13.0 0.00 0.00 0.00 89 1017.8
20260502034104 56 118 6.0 13.0 0.00 0.00 0.00 89 1017.8
20260502033603 56 109 5.0 9.0 0.00 0.00 0.00 89 1017.8
20260502033412 56 106 5.0 9.0 0.00 0.00 0.00 89 1017.9
20260502032603 56 121 3.0 9.0 0.00 0.00 0.00 89 1018.0
20260502032103 56 124 3.0 10.0 0.00 0.00 0.00 89 1017.9
20260502031605 56 107 6.0 10.0 0.00 0.00 0.00 89 1018.0
20260502031409 56 125 4.0 9.0 0.00 0.00 0.00 88 1018.0
20260502030739 56 97 3.0 7.0 0.00 0.00 0.00 88 1018.1
20260502030707 56 121 4.0 9.0 0.00 0.00 0.00 88 1018.1
20260502025605 56 73 4.0 11.0 0.00 0.00 0.00 88 1018.1
20260502025103 56 78 5.0 11.0 0.00 0.00 0.00 88 1018.1
20260502024603 56 93 4.0 12.0 0.00 0.00 0.00 88 1018.1
20260502024103 56 92 5.0 12.0 0.00 0.00 0.00 88 1018.1
20260502023601 56 109 5.0 9.0 0.00 0.00 0.00 88 1018.1
20260502023104 56 96 5.0 12.0 0.00 0.00 0.00 87 1018.0
20260502022602 56 102 6.0 12.0 0.00 0.00 0.00 87 1018.1
20260502022410 56 99 7.0 13.0 0.00 0.00 0.00 87 1018.2
20260502021602 56 120 9.0 13.0 0.00 0.00 0.00 87 1018.2
20260502021411 56 87 6.0 12.0 0.00 0.00 0.00 87 1018.3
20260502020603 56 113 4.0 11.0 0.00 0.00 0.00 87 1018.4
20260502015601 56 100 5.0 14.0 0.00 0.00 0.00 86 1018.5
20260502015101 56 104 7.0 14.0 0.00 0.00 0.00 87 1018.4
20260502014603 56 113 5.0 9.0 0.00 0.00 0.00 87 1018.4
20260502014101 56 110 4.0 9.0 0.00 0.00 0.00 87 1018.5
20260502013602 56 120 5.0 9.0 0.00 0.00 0.00 87 1018.5
20260502013101 56 102 4.0 13.0 0.00 0.00 0.00 86 1018.6
20260502012600 56 92 4.0 13.0 0.00 0.00 0.00 86 1018.6
20260502012100 56 109 6.0 12.0 0.00 0.00 0.00 86 1018.6
20260502011559 56 111 6.0 11.0 0.00 0.00 0.00 86 1018.7
20260502011102 56 116 6.0 12.0 0.00 0.00 0.00 85 1018.8
20260502010600 56 117 7.0 12.0 0.00 0.00 0.00 85 1018.8
20260502010113 56 117 6.0 11.0 0.00 0.00 0.00 85 1018.9
20260502005600 56 106 4.0 11.0 0.00 0.00 0.00 84 1019.0
20260502005101 56 99 5.0 11.0 0.00 0.00 0.00 84 1019.0
20260502004601 56 97 4.0 11.0 0.00 0.00 0.00 84 1019.1
20260502004410 56 120 4.0 11.0 0.00 0.00 0.00 84 1019.2
20260502003600 56 110 4.0 12.0 0.00 0.00 0.00 84 1019.2
20260502003100 56 116 3.0 13.0 0.00 0.00 0.00 84 1019.3
20260502002600 56 96 4.0 13.0 0.00 0.00 0.00 84 1019.3
20260502002101 56 140 3.0 11.0 0.00 0.00 0.00 84 1019.3
20260502001600 56 89 4.0 7.0 0.00 0.00 0.00 83 1019.4
20260502001059 56 106 5.0 7.0 0.00 0.00 0.00 83 1019.4
20260502000559 56 99 4.0 9.0 0.00 0.00 0.00 83 1019.4
20260502000106 56 120 3.0 9.0 0.00 0.00 0.00 83 1019.5
20260501235559 56 113 4.0 7.0 0.00 0.00 0.00 82 1019.5
20260501235059 56 121 3.0 9.0 0.00 0.00 0.00 82 1019.6
20260501234558 56 121 3.0 11.0 0.00 0.00 0.00 82 1019.6
20260501234100 56 111 5.0 11.0 0.00 0.00 0.00 82 1019.6
20260501233558 56 97 5.0 10.0 0.00 0.00 0.00 82 1019.7
20260501233059 56 103 3.0 6.0 0.00 0.00 0.00 81 1019.7
20260501232557 56 109 3.0 6.0 0.00 0.00 0.00 81 1019.7
20260501232058 56 104 4.0 9.0 0.00 0.00 0.00 81 1019.7
20260501231559 56 104 4.0 9.0 0.00 0.00 0.00 81 1019.7
20260501231058 56 86 4.0 7.0 0.00 0.00 0.00 80 1019.7
20260501230557 56 106 4.0 6.0 0.00 0.00 0.00 80 1019.8
20260501230109 56 94 3.0 5.0 0.00 0.00 0.00 79 1019.8
20260501225559 57 114 3.0 6.0 0.00 0.00 0.00 79 1019.8
20260501225056 57 111 3.0 9.0 0.00 0.00 0.00 78 1019.8
20260501224559 57 110 5.0 9.0 0.00 0.00 0.00 78 1019.7
20260501224056 57 109 4.0 7.0 0.00 0.00 0.00 77 1019.8
20260501223556 57 102 3.0 7.0 0.00 0.00 0.00 76 1019.7
20260501223056 57 94 4.0 7.0 0.00 0.00 0.00 75 1019.8
20260501222908 57 100 4.0 6.0 0.00 0.00 0.00 75 1019.7
20260501222058 57 82 4.0 6.0 0.00 0.00 0.00 74 1019.8
20260501221555 57 99 2.0 7.0 0.00 0.00 0.00 74 1019.8
20260501221057 57 89 3.0 9.0 0.00 0.00 0.00 73 1019.8
20260501220555 58 99 4.0 9.0 0.00 0.00 0.00 72 1019.8
20260501220110 58 96 4.0 10.0 0.00 0.00 0.00 72 1019.8
20260501215556 58 90 5.0 10.0 0.00 0.00 0.00 71 1019.9
20260501215411 58 90 5.0 11.0 0.00 0.00 0.00 71 1019.9
20260501214557 58 90 6.0 11.0 0.00 0.00 0.00 70 1019.9
20260501214055 58 113 5.0 9.0 0.00 0.00 0.00 70 1020.0
20260501213558 58 131 5.0 9.0 0.00 0.00 0.00 69 1020.0
20260501213054 58 111 4.0 9.0 0.00 0.00 0.00 69 1020.0
20260501212557 58 96 4.0 10.0 0.00 0.00 0.00 69 1020.0
20260501212055 58 123 6.0 10.0 0.00 0.00 0.00 68 1020.0
20260501211558 59 102 5.0 10.0 0.00 0.00 0.00 67 1020.0
20260501211058 59 102 6.0 10.0 0.00 0.00 0.00 67 1020.2
20260501210555 59 114 6.0 9.0 0.00 0.00 0.00 66 1020.2
20260501210110 59 114 5.0 11.0 0.00 0.00 0.00 65 1020.3
20260501205554 59 114 4.0 11.0 0.00 0.00 0.00 64 1020.3
20260501205056 59 135 5.0 11.0 0.00 0.00 0.00 63 1020.3
20260501204554 59 111 6.0 16.0 0.00 0.00 0.00 62 1020.3
20260501204056 60 90 4.0 16.0 0.00 0.00 0.00 61 1020.3
20260501203554 60 120 6.0 11.0 0.00 0.00 0.00 61 1020.3
20260501203413 60 111 6.0 10.0 0.00 0.00 0.00 59 1020.3
20260501202558 60 103 6.0 10.0 0.00 0.00 0.00 59 1020.0
20260501202412 60 110 6.0 11.0 0.00 0.00 0.00 57 1020.2
20260501201601 60 90 6.0 13.0 0.00 0.00 0.00 57 1020.2
20260501201053 60 93 4.0 13.0 0.00 0.00 0.00 56 1020.0
20260501200556 60 96 5.0 11.0 0.00 0.00 0.00 56 1020.0
20260501200104 60 97 4.0 11.0 0.00 0.00 0.00 56 1019.9
20260501195906 61 103 6.0 11.0 0.00 0.00 0.00 55 1019.9
20260501195410 61 102 6.0 11.0 0.00 0.00 0.00 53 1019.8
20260501194553 61 99 5.0 9.0 0.00 0.00 0.00 54 1019.9
20260501194053 61 114 5.0 7.0 0.00 0.00 0.00 53 1019.8
20260501193553 61 75 3.0 7.0 0.00 0.00 0.00 53 1019.7
20260501193056 62 104 5.0 10.0 0.00 0.00 0.00 52 1019.7
20260501192554 62 85 4.0 11.0 0.00 0.00 0.00 52 1019.7
20260501192055 62 87 6.0 11.0 0.00 0.00 0.00 52 1019.7
20260501191911 62 109 4.0 7.0 0.00 0.00 0.00 52 1019.6
20260501191054 62 99 3.0 10.0 0.00 0.00 0.00 52 1019.6
20260501190552 62 120 4.0 10.0 0.00 0.00 0.00 52 1019.5
20260501190430 62 109 6.0 9.0 0.00 0.00 0.00 51 1019.5
20260501185553 63 109 4.0 9.0 0.00 0.00 0.00 52 1019.5
20260501185054 63 102 4.0 10.0 0.00 0.00 0.00 51 1019.4
20260501184556 63 103 5.0 12.0 0.00 0.00 0.00 50 1019.5
20260501184051 64 106 5.0 12.0 0.00 0.00 0.00 50 1019.5
20260501183554 64 117 6.0 10.0 0.00 0.00 0.00 50 1019.4
20260501183054 64 116 5.0 10.0 0.00 0.00 0.00 51 1019.3
20260501182554 64 118 5.0 10.0 0.00 0.00 0.00 51 1019.4
20260501182053 64 120 4.0 11.0 0.00 0.00 0.00 51 1019.4
20260501181552 64 87 4.0 11.0 0.00 0.00 0.00 52 1019.4
20260501181412 65 114 4.0 10.0 0.00 0.00 0.00 50 1019.3
20260501180550 65 116 5.0 10.0 0.00 0.00 0.00 50 1019.4
20260501180105 65 123 5.0 15.0 0.00 0.00 0.00 51 1019.3
20260501175551 65 92 7.0 17.0 0.00 0.00 0.00 49 1019.2
20260501175053 65 124 8.0 18.0 0.00 0.00 0.00 49 1019.2
20260501174907 65 96 11.0 21.0 0.00 0.00 0.00 48 1019.2
20260501174050 66 103 13.0 21.0 0.00 0.00 0.00 49 1019.2
20260501173553 66 72 7.0 16.0 0.00 0.00 0.00 50 1019.1
20260501173050 66 113 9.0 16.0 0.00 0.00 0.00 50 1019.1
20260501172913 66 116 6.0 12.0 0.00 0.00 0.00 50 1019.1
20260501172049 66 100 7.0 13.0 0.00 0.00 0.00 49 1019.0
20260501171550 67 111 7.0 13.0 0.00 0.00 0.00 49 1019.1